Location: Crayja
(6.2254°N, 10.6273°W)
Time: 07:57:01
(UTC+00:00)

STARLINK-74 - Pass Details

Date: 17 February 2020
Orbit: 529 x 530 km, 53.0° (Epoch: 07 April)

Event Time Altitude Azimuth Distance (km) Brightness Sun altitude
Exits shadow 05:41:01 45° 235° (SW) 720 3.8 -19.7°
Drops below altitude 10° 05:44:50 10° 163° (SSE) 1,768 6.5 -18.8°
Sets 05:47:07 0° 156° (SSE) 2,657 7.6 -18.2°
